User: anonymous   Login
Location: Enid
(36.3960°N, 97.8780°W)
Time: 11:56:04
(UTC-06:00)
Language:

Hubble Space Telescope - Orbit

View from above orbital plane
View from above orbital plane
View from above satellite
View from above satellite

Ground track
Ground track

The orbit data is extracted from the following two-line orbital elements,

1 20580U 90037B   16341.23664276  .00000586  00000-0  25274-4 0  9998
2 20580  28.4719 202.3507 0002956 248.9588 111.0703 15.08614208261112
Epoch (UTC): 06 December 2016 05:40:45
Eccentricity: 0.0002956
inclination: 28.4719°
perigee height: 538 km
apogee height: 542 km
right ascension of ascending node: 202.3507°
argument of perigee: 248.9588°
revolutions per day: 15.08614208
mean anomaly at epoch: 111.0703°
orbit number at epoch: 26111

The dashed part of the orbit path shows where the satellite is in the earth's shadow,  

DLR